Lexington Weather

Lexington, Massachusetts, USA

70°F
8/17/2022 6:16pm 
  • Lexington Conditions: Overcast
  • Temperature: 70.2°F / 21.2°CColder 0.3°F than last hour.
  • Dew Point: 58.6°FIncreased 0.5°Fsince last hour.
  • Relative Humidity: 67%Increased 2.0% since last hour.
  • Wind: Calm, 10-min avg: Calm, gust: None
  • Barometer: 29.86 inFalling 0.02  inHg/hr Falling Slowly
  • Visibility: 10 miles
  • Rain Today: 0.00 in
  •   

Regional Weather Roundup
for Boston, MA

        
000
ASUS41 KBOX 141510
RWRBOX

REGIONAL WEATHER ROUNDUP
NATIONAL WEATHER SERVICE BOSTON/NORTON MA
1100 AM EDT SUN AUG 14 2022

NOTE:  "FAIR" INDICATES FEW OR NO CLOUDS BELOW 12,000 FEET WITH NO 
SIGNIFICANT WEATHER AND/OR OBSTRUCTIONS TO VISIBILITY.

MAZALL-141600-
EASTERN MASSACHUSETTS
  
CITY           SKY/WX    TMP DP  RH WIND       PRES   REMARKS
BOSTON         MOSUNNY   78  51  38 VRB7      30.05F                  
BEVERLY        SUNNY     77  51  40 CALM      30.04F                  
LAWRENCE       SUNNY     77  53  43 CALM      30.07S                  
BEDFORD        SUNNY     77  52  41 NW7       30.04F                  
BLUE HILL      NOT AVBL                                               
NORWOOD        SUNNY     78  52  40 CALM      30.04F                  
MARSHFIELD     SUNNY     75  57  53 VRB7      30.05S                  
PLYMOUTH       SUNNY     76  55  48 W7        30.06S                  
TAUNTON          N/A    N/A N/A N/A MISG      30.05F                  
NEW BEDFORD    SUNNY     79  52  38 VRB7      30.05F                  
$$

MAZALL-141600-
CAPE COD AND THE ISLANDS
  
CITY           SKY/WX    TMP DP  RH WIND       PRES   REMARKS
FALMOUTH       NOT AVBL                                               
HYANNIS        SUNNY     78  54  43 VRB7      30.04F                  
CHATHAM        SUNNY     77  53  43 VRB3      30.06F                  
NANTUCKET      MOSUNNY   76  61  59 W7        30.06F                  
MARTHAS VNYRD  MOSUNNY   77  54  44 W6        30.06F                  
$$
 
MAZALL-141600-
CENTRAL AND WESTERN MASSACHUSETTS
  
CITY           SKY/WX    TMP DP  RH WIND       PRES   REMARKS
WORCESTER      SUNNY     74  45  35 NW10      30.09F                  
FITCHBURG      SUNNY     77  45  32 W6        30.07S                  
ORANGE         SUNNY     77  49  37 VRB5      30.09S                  
SPRINGFIELD    NOT AVBL                                               
WESTFIELD      MOSUNNY   75  51  43 W7        30.07F                  
NORTH ADAMS    NOT AVBL                                               
PITTSFIELD     SUNNY     73  50  44 VRB3      30.09S                  
$$
 
RIZALL-141600-
RHODE ISLAND
  
CITY           SKY/WX    TMP DP  RH WIND       PRES   REMARKS
PROVIDENCE     MOSUNNY   79  49  34 N6        30.06F                  
NEWPORT        MOSUNNY   75  55  49 N6        30.06F                  
BLOCK ISLAND   PTSUNNY   75  54  47 N6        30.09S                  
SMITHFIELD     SUNNY     77  51  40 NE7       30.07F                  
WESTERLY       MOSUNNY   79  51  37 VRB5      30.07F                  
$$
 
CTZALL-141600-
CONNECTICUT
  
CITY           SKY/WX    TMP DP  RH WIND       PRES   REMARKS
BRADLEY INTL   MOSUNNY   76  52  43 CALM      30.07F                  
HARTFORD       MOSUNNY   76  55  48 CALM      30.07F                  
BRIDGEPORT     PTSUNNY   75  55  49 SE7       30.07F                  
DANBURY        MOSUNNY   76  54  46 E7        30.09F                  
GROTON         MOSUNNY   74  59  59 S9        30.07S                  
NEW HAVEN      MOSUNNY   80  56  43 SW5       30.07F                  
CHESTER        FAIR      77  48  36 S6        30.08F                  
MERIDEN        MOSUNNY   77  53  43 VRB3      30.07F                  
WILLIMANTIC    MOSUNNY   77  49  37 VRB6      30.07F                  
OXFORD         MOSUNNY   72  52  49 VRB5      30.10F                  
$$

MEZ002-015-021-024-NHZ003-005-008-011-012-014-VTZ005-008-141600-
NORTHERN NEW ENGLAND
  
CITY           SKY/WX    TMP DP  RH WIND       PRES   REMARKS
PORTLAND ME    MOSUNNY   76  52  43 VRB3      30.03S                  
BANGOR ME      MOSUNNY   75  59  57 VRB6      30.01S                  
CONCORD NH     SUNNY     75  54  47 VRB3      30.06F                  
MANCHESTER NH  MOSUNNY   77  53  43 N7        30.04F                  
NASHUA NH      SUNNY     76  53  44 NW10      30.06S                  
PORTSMOUTH NH  MOSUNNY   76  47  35 SW5       30.04F                  
JAFFREY NH     SUNNY     74  44  34 W6        30.09S                  
KEENE NH       SUNNY     71  56  58 N7          N/A                   
BURLINGTON VT  MOSUNNY   72  54  53 VRB5      30.08F                  
MT. WASHINGTON PTSUNNY   48  43  81 N5          N/A                   
$$

NYZ052-076-141600-
EASTERN NEW YORK
  
CITY           SKY/WX    TMP DP  RH WIND       PRES   REMARKS
ALBANY         MOSUNNY   71  54  54 CALM      30.09S                  
NEW YORK CITY  PTSUNNY   75  54  47 NE9       30.07S                  
$$
 
ANZALL-141600-
MARINE OBSERVATIONS
  
STATION/POSITION TIME  TEMP    WIND        PRES    VSBY  WAVE
                       AIR SEA DIR/SP/G                  HT/PER
                 (UTC) (F)     (DEG/KT/KT) (MB)    (MI)  (FT/S)
BOSTON BUOY      NOT AVBL
BUZZARDS BAY     NOT AVBL
NANTUCKET SOUND  NOT AVBL
MASS BAY-STELLWA NOT AVBL
ISLE OF SHOALS   NOT AVBL
S OF BLOCK IS    NOT AVBL
$$

......................KEY.........................
  SKY/WX - SKY CONDITION/PRESENT WEATHER
  TMP    - TEMPERATURE IN FAHRENHEIT
  DWPT   - DEWPOINT IN FAHRENHEIT
  RH     - RELATIVE HUMIDITY IN PERCENT
  WIND   - DIRECTION AND SPEED IN MPH
  PRES   - MEAN SEA LEVEL PRESSURE IN INCHES OF HG
  WCI    - WIND CHILL INDEX
  VSB    - VISIBILITY IN MILES
  HX     - HEAT INDEX
  TC     - TEMPERATURE IN CELSIUS
  VRB    - VARIABLE WIND DIRECTION
  N/A    - NOT AVAILABLE
  
      

Other recent Regional Weather Roundups

Wed Aug 17, 5:10pm

Wed Aug 17, 4:10pm

Wed Aug 17, 3:10pm

Wed Aug 17, 2:10pm

Wed Aug 17, 1:10pm

Wed Aug 17, 12:10pm

Wed Aug 17, 11:10am

Wed Aug 17, 10:10am

Wed Aug 17, 9:10am

Wed Aug 17, 8:10am

Wed Aug 17, 7:10am

Wed Aug 17, 6:10am

Wed Aug 17, 5:10am

Wed Aug 17, 4:10am

Wed Aug 17, 3:10am

Wed Aug 17, 2:10am

Wed Aug 17, 1:10am

Wed Aug 17, 12:10am

Tue Aug 16, 11:10pm

Tue Aug 16, 10:10pm

Tue Aug 16, 9:10pm

Tue Aug 16, 8:10pm

Tue Aug 16, 7:10pm

Tue Aug 16, 6:10pm

Tue Aug 16, 5:10pm

Tue Aug 16, 4:10pm

Tue Aug 16, 3:10pm

Tue Aug 16, 2:10pm

Tue Aug 16, 1:10pm

Tue Aug 16, 12:10pm

Tue Aug 16, 11:10am

Tue Aug 16, 10:10am

Tue Aug 16, 9:10am

Tue Aug 16, 8:10am

Tue Aug 16, 7:10am

Tue Aug 16, 6:10am

Tue Aug 16, 5:10am

Tue Aug 16, 4:10am

Tue Aug 16, 3:10am

Tue Aug 16, 2:10am

Tue Aug 16, 1:10am

Tue Aug 16, 12:10am

Mon Aug 15, 11:10pm

Mon Aug 15, 10:10pm

Mon Aug 15, 9:10pm

Mon Aug 15, 8:10pm

Mon Aug 15, 7:10pm

Mon Aug 15, 6:10pm

Mon Aug 15, 5:10pm

Mon Aug 15, 4:10pm

Mon Aug 15, 3:10pm

Mon Aug 15, 2:10pm

Mon Aug 15, 1:10pm

Mon Aug 15, 12:10pm

Mon Aug 15, 11:10am

Mon Aug 15, 10:10am

Mon Aug 15, 9:10am

Mon Aug 15, 8:10am

Mon Aug 15, 7:10am

Mon Aug 15, 6:10am

Mon Aug 15, 5:10am

Mon Aug 15, 4:10am

Mon Aug 15, 3:10am

Mon Aug 15, 2:10am

Mon Aug 15, 1:10am

Mon Aug 15, 12:10am

Sun Aug 14, 11:10pm

Sun Aug 14, 10:10pm

Sun Aug 14, 9:10pm

Sun Aug 14, 8:10pm

Sun Aug 14, 7:10pm

Sun Aug 14, 6:10pm

Sun Aug 14, 5:10pm

Sun Aug 14, 4:10pm

Sun Aug 14, 3:10pm

Sun Aug 14, 2:10pm

Sun Aug 14, 1:10pm

Sun Aug 14, 12:10pm

Sun Aug 14, 10:10am

Sun Aug 14, 9:10am

Sun Aug 14, 8:10am

Sun Aug 14, 7:10am

Sun Aug 14, 6:10am

Sun Aug 14, 5:10am

Sun Aug 14, 4:10am

Sun Aug 14, 3:10am

Sun Aug 14, 2:10am

Sun Aug 14, 1:10am

Sun Aug 14, 12:10am

Sat Aug 13, 11:10pm

Sat Aug 13, 10:10pm

Sat Aug 13, 9:10pm

Sat Aug 13, 8:10pm

Sat Aug 13, 7:10pm

Sat Aug 13, 6:10pm

Sat Aug 13, 5:10pm

Sat Aug 13, 4:10pm

Sat Aug 13, 3:10pm

Sat Aug 13, 2:10pm

Sat Aug 13, 1:10pm

Sat Aug 13, 12:10pm

Sat Aug 13, 11:10am

Sat Aug 13, 10:10am

Sat Aug 13, 9:10am

Sat Aug 13, 8:10am

Sat Aug 13, 7:10am

Sat Aug 13, 6:10am

Sat Aug 13, 5:10am

Sat Aug 13, 4:10am

Sat Aug 13, 3:10am

Sat Aug 13, 2:10am

Sat Aug 13, 1:10am

Sat Aug 13, 12:10am

Fri Aug 12, 11:10pm

Fri Aug 12, 10:10pm

Fri Aug 12, 9:10pm

Fri Aug 12, 8:10pm

Fri Aug 12, 7:10pm

Fri Aug 12, 6:10pm

Fri Aug 12, 5:10pm

Fri Aug 12, 4:10pm

Fri Aug 12, 3:10pm

Fri Aug 12, 2:10pm

Fri Aug 12, 1:10pm

Fri Aug 12, 12:10pm

Fri Aug 12, 11:10am

Fri Aug 12, 10:10am

Fri Aug 12, 9:10am

Fri Aug 12, 8:10am

Fri Aug 12, 7:10am

Fri Aug 12, 6:10am

Fri Aug 12, 5:10am

Fri Aug 12, 4:10am

Fri Aug 12, 3:10am

Fri Aug 12, 2:10am

Fri Aug 12, 1:10am

Fri Aug 12, 12:10am

Thu Aug 11, 11:10pm

Thu Aug 11, 10:10pm

Thu Aug 11, 9:10pm

Thu Aug 11, 8:10pm

Thu Aug 11, 7:10pm

Thu Aug 11, 6:10pm

Thu Aug 11, 5:10pm

Thu Aug 11, 4:10pm

Thu Aug 11, 3:10pm

Thu Aug 11, 2:10pm

Thu Aug 11, 1:10pm

Thu Aug 11, 12:10pm

Thu Aug 11, 11:10am

Thu Aug 11, 10:10am

Thu Aug 11, 9:10am

Thu Aug 11, 8:10am

Thu Aug 11, 7:10am

Thu Aug 11, 6:10am

Thu Aug 11, 5:10am

Thu Aug 11, 4:10am

Thu Aug 11, 3:10am

Thu Aug 11, 2:10am

Thu Aug 11, 1:10am

Thu Aug 11, 12:10am

Wed Aug 10, 11:10pm

Wed Aug 10, 10:10pm

Wed Aug 10, 9:10pm

Wed Aug 10, 8:10pm

Wed Aug 10, 7:10pm

Wed Aug 10, 6:10pm

Meta data:

ID: a3db4f9e-e336-4562-9213-ecfe5914e870
Link: https://api.weather.gov/products/a3db4f9e-e336-4562-9213-ecfe5914e870